This is the latest recevied weather packets stored in our database for station/object I8ZSE-10. If no packets are shown the sender has not sent any weather packets the latest 10 day(s).
| Time | Temp. | Humidity | Pressure | Rain* | Wind** | Luminosity | Snow |
|---|---|---|---|---|---|---|---|
| 1777897208 | 21.11° C | 38% | 1021.2 hPa | 0 mm | - | - | - |
| 1777896609 | 21.11° C | 39% | 1021.2 hPa | 0 mm | - | - | - |
| 1777896008 | 20.56° C | 39% | 1021.1 hPa | 0 mm | - | - | - |
| 1777895408 | 20.56° C | 39% | 1021 hPa | 0 mm | - | - | - |
| 1777894809 | 20° C | 41% | 1021 hPa | 0 mm | - | - | - |
| 1777894209 | 20° C | 40% | 1021.1 hPa | 0 mm | - | - | - |
| 1777893608 | 20.56° C | 39% | 1021.2 hPa | 0 mm | - | - | - |
| 1777893009 | 20° C | 38% | 1021.2 hPa | 0 mm | - | - | - |
| 1777892409 | 20.56° C | 36% | 1021.3 hPa | 0 mm | - | - | - |
| 1777891808 | 20.56° C | 35% | 1021.3 hPa | 0 mm | - | - | - |
| 1777891208 | 20.56° C | 34% | 1021.4 hPa | 0 mm | - | - | - |
| 1777890608 | 20.56° C | 34% | 1021.5 hPa | 0 mm | - | - | - |
| 1777890008 | 20.56° C | 35% | 1021.6 hPa | 0 mm | - | - | - |
| 1777889408 | 20° C | 36% | 1021.5 hPa | 0 mm | - | - | - |
| 1777888808 | 20° C | 37% | 1021.5 hPa | 0 mm | - | - | - |
| 1777888208 | 19.44° C | 38% | 1021.4 hPa | 0 mm | - | - | - |
| 1777887608 | 19.44° C | 39% | 1021.3 hPa | 0 mm | - | - | - |
| 1777887009 | 18.89° C | 40% | 1021.3 hPa | 0 mm | - | - | - |
| 1777886408 | 18.33° C | 41% | 1021.3 hPa | 0 mm | - | - | - |
| 1777885808 | 18.33° C | 42% | 1021.3 hPa | 0 mm | - | - | - |
| 1777885208 | 18.33° C | 42% | 1021.2 hPa | 0 mm | - | - | - |
| 1777884609 | 18.33° C | 43% | 1021 hPa | 0 mm | - | - | - |
| 1777884008 | 18.33° C | 43% | 1021 hPa | 0 mm | - | - | - |
| 1777883408 | 18.33° C | 42% | 1021 hPa | 0 mm | - | - | - |
| 1777882808 | 17.78° C | 43% | 1021 hPa | 0 mm | - | - | - |
* Rain latest hour (hover to see other rain measurements)
** Current wind speed in m/s (hover to see current wind gust speed)